KN4FVH Weather Reports


time (UTC)temp
C
wind
direction
speed
KPH
gust
KPH
rain 1hr
cm
rain 24hr
cm
rain mn
cm
humidity
%
barometer
mb
20260505152220 22 185 0.0 0.0 0.00 0.00 0.00 59 1019.0
20260505151714 22 220 0.0 0.0 0.00 0.00 0.00 60 1019.1
20260505151212 21 184 0.0 1.6 0.00 0.00 0.00 60 1018.8
20260505150708 21 162 0.0 1.6 0.00 0.00 0.00 60 1018.8
20260505150206 21 184 1.6 1.6 0.00 0.00 0.00 60 1018.9
20260505140639 19 232 1.6 1.6 0.00 0.00 0.00 69 1018.9
20260505140136 19 246 0.0 1.6 0.00 0.00 0.00 68 1018.8
20260505124549 16 197 0.0 0.0 0.00 0.00 0.00 77 1019.1
20260505124045 15 179 1.6 1.6 0.00 0.00 0.00 78 1019.0
20260505123542 15 193 0.0 0.0 0.00 0.00 0.00 78 1019.3
20260505123038 15 180 1.6 1.6 0.00 0.00 0.00 78 1018.9
20260505122535 15 163 1.6 1.6 0.00 0.00 0.00 79 1018.8
20260505122032 15 188 0.0 0.0 0.00 0.00 0.00 79 1019.0
20260505121529 15 194 0.0 0.0 0.00 0.00 0.00 79 1019.0
20260505121025 15 187 0.0 0.0 0.00 0.00 0.00 80 1018.8
20260505120522 14 187 0.0 0.0 0.00 0.00 0.00 79 1018.8
20260505120017 14 205 0.0 1.6 0.00 0.00 0.00 80 1018.9
20260505115512 14 179 0.0 1.6 0.00 0.00 0.00 80 1018.7
20260505115010 14 185 0.0 0.0 0.00 0.00 0.00 80 1018.8
20260505114507 13 226 0.0 0.0 0.00 0.00 0.00 80 1018.6
20260505114003 13 227 0.0 1.6 0.00 0.00 0.00 80 1018.6
20260505113500 13 227 0.0 1.6 0.00 0.00 0.00 81 1018.9
20260505112955 13 227 0.0 1.6 0.00 0.00 0.00 81 1018.7
20260505112453 13 227 0.0 0.0 0.00 0.00 0.00 81 1018.6
20260505111950 13 173 0.0 0.0 0.00 0.00 0.00 82 1018.5
20260505111444 13 173 0.0 0.0 0.00 0.00 0.00 82 1018.4
20260505110941 13 173 0.0 1.6 0.00 0.00 0.00 82 1018.4
20260505110438 12 173 0.0 1.6 0.00 0.00 0.00 82 1018.5
20260505101908 12 171 1.6 1.6 0.00 0.00 0.00 82 1017.9
20260505101403 12 171 0.0 0.0 0.00 0.00 0.00 82 1018.0
20260505100859 12 171 0.0 0.0 0.00 0.00 0.00 82 1017.9
20260505100356 12 171 0.0 0.0 0.00 0.00 0.00 81 1017.9
20260505095851 13 171 0.0 0.0 0.00 0.00 0.00 80 1017.9
20260505095349 13 171 0.0 0.0 0.00 0.00 0.00 80 1017.8
20260505094845 13 171 0.0 0.0 0.00 0.00 0.00 80 1017.7
20260505094342 13 171 0.0 1.6 0.00 0.00 0.00 79 1017.7
20260505093838 13 171 0.0 1.6 0.00 0.00 0.00 79 1017.5
20260505093335 13 171 0.0 1.6 0.00 0.00 0.00 79 1017.5
20260505092832 13 171 0.0 1.6 0.00 0.00 0.00 79 1017.7
20260505092331 13 171 0.0 0.0 0.00 0.00 0.00 79 1017.4
20260505091827 13 171 0.0 1.6 0.00 0.00 0.00 79 1017.3
20260505091325 13 171 0.0 0.0 0.00 0.00 0.00 78 1017.3
20260505090824 13 171 1.6 1.6 0.00 0.00 0.00 79 1017.3
20260505090321 13 171 1.6 1.6 0.00 0.00 0.00 78 1017.5
20260505085818 13 171 0.0 0.0 0.00 0.00 0.00 78 1017.4
20260505085316 13 171 0.0 0.0 0.00 0.00 0.00 77 1017.4
20260505084813 13 171 0.0 1.6 0.00 0.00 0.00 77 1017.5
20260505084312 13 171 0.0 1.6 0.00 0.00 0.00 76 1017.4
20260505083808 13 171 0.0 0.0 0.00 0.00 0.00 76 1017.4
20260505083306 14 171 0.0 0.0 0.00 0.00 0.00 75 1017.5
20260505082802 14 171 0.0 0.0 0.00 0.00 0.00 74 1017.3
20260505082259 14 172 0.0 0.0 0.00 0.00 0.00 74 1017.3
20260505081755 14 172 0.0 0.0 0.00 0.00 0.00 74 1017.4
20260505081252 14 172 0.0 0.0 0.00 0.00 0.00 74 1017.3
20260505080749 15 172 0.0 0.0 0.00 0.00 0.00 73 1017.3
20260505080244 15 172 0.0 0.0 0.00 0.00 0.00 72 1017.2
20260505075740 15 172 0.0 0.0 0.00 0.00 0.00 72 1017.2
20260505075238 15 172 0.0 0.0 0.00 0.00 0.00 71 1017.2
20260505074735 15 172 0.0 0.0 0.00 0.00 0.00 71 1017.1
20260505074232 15 171 0.0 1.6 0.00 0.00 0.00 71 1017.1
20260505073729 15 172 0.0 0.0 0.00 0.00 0.00 71 1017.0
20260505073227 15 172 0.0 0.0 0.00 0.00 0.00 70 1017.1
20260505072723 15 169 0.0 0.0 0.00 0.00 0.00 70 1017.1
20260505072219 15 169 0.0 0.0 0.00 0.00 0.00 70 1016.9
20260505071715 15 169 0.0 0.0 0.00 0.00 0.00 70 1016.9
20260505071213 15 169 0.0 1.6 0.00 0.00 0.00 70 1016.9
20260505070710 15 169 0.0 1.6 0.00 0.00 0.00 70 1017.0
20260505070206 15 168 0.0 1.6 0.00 0.00 0.00 70 1017.0
20260505065702 15 169 0.0 0.0 0.00 0.00 0.00 70 1016.9
20260505065159 15 169 1.6 1.6 0.00 0.00 0.00 70 1017.0
20260505064656 15 169 0.0 0.0 0.00 0.00 0.00 70 1017.1
20260505064154 16 169 0.0 0.0 0.00 0.00 0.00 69 1017.0
20260505063651 16 169 0.0 0.0 0.00 0.00 0.00 70 1017.0
20260505063147 16 167 0.0 1.6 0.00 0.00 0.00 70 1016.9
20260505062643 16 167 1.6 1.6 0.00 0.00 0.00 69 1017.0
20260505062141 16 171 0.0 1.6 0.00 0.00 0.00 69 1016.9
20260505061638 16 167 0.0 1.6 0.00 0.00 0.00 69 1017.0
20260505061136 16 170 1.6 1.6 0.00 0.00 0.00 69 1016.7
20260505060633 16 152 0.0 0.0 0.00 0.00 0.00 69 1016.9
20260505060130 16 174 1.6 1.6 0.00 0.00 0.00 68 1017.0
20260505055625 16 172 0.0 0.0 0.00 0.00 0.00 68 1017.1
20260505055122 16 175 0.0 1.6 0.00 0.00 0.00 68 1017.2
20260505054619 16 173 1.6 1.6 0.00 0.00 0.00 68 1017.1
20260505054118 16 172 1.6 1.6 0.00 0.00 0.00 68 1016.9
20260505053614 16 172 0.0 1.6 0.00 0.00 0.00 68 1017.0
20260505053111 16 172 1.6 1.6 0.00 0.00 0.00 68 1017.3
20260505052608 16 177 0.0 0.0 0.00 0.00 0.00 68 1017.2
20260505052106 16 173 0.0 1.6 0.00 0.00 0.00 68 1017.1
20260505051602 16 171 1.6 1.6 0.00 0.00 0.00 68 1017.3
20260505051100 16 169 1.6 1.6 0.00 0.00 0.00 68 1017.4
20260505050558 16 176 1.6 1.6 0.00 0.00 0.00 68 1017.4
20260505041526 17 167 1.6 1.6 0.00 0.00 0.00 66 1017.1
20260505041023 17 171 1.6 1.6 0.00 0.00 0.00 66 1017.2
20260505040520 17 177 0.0 0.0 0.00 0.00 0.00 66 1017.2
20260505040018 17 171 1.6 1.6 0.00 0.00 0.00 65 1017.2
20260505035513 17 172 0.0 1.6 0.00 0.00 0.00 65 1017.2
20260505035011 17 151 1.6 1.6 0.00 0.00 0.00 65 1017.0
20260505034507 17 170 1.6 1.6 0.00 0.00 0.00 65 1017.1
20260505034004 17 172 1.6 1.6 0.00 0.00 0.00 65 1017.2
20260505033500 18 167 1.6 1.6 0.00 0.00 0.00 65 1017.0
20260505032959 18 177 0.0 1.6 0.00 0.00 0.00 64 1017.0
20260505032456 18 164 1.6 1.6 0.00 0.00 0.00 64 1017.1
20260505031952 18 172 1.6 3.2 0.00 0.00 0.00 65 1017.2
20260505031449 18 165 0.0 1.6 0.00 0.00 0.00 65 1017.2
20260505030946 18 164 1.6 1.6 0.00 0.00 0.00 64 1017.2
20260505030442 18 171 1.6 1.6 0.00 0.00 0.00 64 1017.1
20260505025937 18 167 1.6 1.6 0.00 0.00 0.00 63 1017.0
20260505025435 18 161 1.6 3.2 0.00 0.00 0.00 63 1017.2
20260505024934 18 172 1.6 1.6 0.00 0.00 0.00 63 1017.1
20260505024431 18 167 3.2 3.2 0.00 0.00 0.00 63 1017.2
20260505023928 18 171 1.6 1.6 0.00 0.00 0.00 62 1017.0
20260505023425 19 179 1.6 1.6 0.00 0.00 0.00 62 1016.8
20260505022922 19 175 1.6 1.6 0.00 0.00 0.00 61 1017.0
20260505022420 19 176 1.6 3.2 0.00 0.00 0.00 61 1016.9
20260505021916 19 174 1.6 1.6 0.00 0.00 0.00 60 1017.0
20260505021413 20 161 1.6 3.2 0.00 0.00 0.00 60 1016.8
20260505020908 20 169 0.0 1.6 0.00 0.00 0.00 58 1016.9
20260505020404 20 184 1.6 1.6 0.00 0.00 0.00 57 1016.9
20260505015901 20 172 1.6 3.2 0.00 0.00 0.00 55 1016.9
20260505015358 20 172 1.6 1.6 0.00 0.00 0.00 53 1016.9
20260505014856 20 171 1.6 1.6 0.00 0.00 0.00 49 1016.7
20260505014352 20 164 1.6 1.6 0.00 0.00 0.00 47 1016.7
20260505013849 20 165 1.6 1.6 0.00 0.00 0.00 47 1016.7
20260505013346 21 169 1.6 1.6 0.00 0.00 0.00 47 1016.5
20260505012845 21 175 1.6 1.6 0.00 0.00 0.00 45 1016.5
20260505012343 21 171 1.6 1.6 0.00 0.00 0.00 45 1016.4
20260505011838 21 169 1.6 1.6 0.00 0.00 0.00 45 1016.2
20260505011335 21 170 1.6 1.6 0.00 0.00 0.00 45 1016.0
20260505010831 21 171 0.0 0.0 0.00 0.00 0.00 44 1016.0
20260505010327 21 171 0.0 1.6 0.00 0.00 0.00 44 1016.1
20260505005823 21 171 1.6 1.6 0.00 0.00 0.00 44 1015.8
20260505005321 21 171 0.0 1.6 0.00 0.00 0.00 43 1015.8
20260505004818 21 169 0.0 0.0 0.00 0.00 0.00 43 1015.7
20260505004314 21 167 0.0 1.6 0.00 0.00 0.00 42 1015.8
20260505003812 21 171 0.0 0.0 0.00 0.00 0.00 43 1015.9
20260505003309 21 167 1.6 1.6 0.00 0.00 0.00 42 1015.6
20260505002805 21 167 1.6 1.6 0.00 0.00 0.00 43 1015.6
20260505002304 21 167 1.6 1.6 0.00 0.00 0.00 43 1015.5
20260505001800 22 164 0.0 0.0 0.00 0.00 0.00 43 1015.4
20260505001257 22 164 0.0 1.6 0.00 0.00 0.00 42 1015.7
20260505000754 22 164 1.6 1.6 0.00 0.00 0.00 43 1015.7
20260505000252 22 163 0.0 0.0 0.00 0.00 0.00 42 1015.4
20260504235748 22 163 1.6 1.6 0.00 0.00 0.00 42 1015.5
20260504235244 22 163 0.0 1.6 0.00 0.00 0.00 41 1015.4
20260504234742 23 167 0.0 0.0 0.00 0.00 0.00 40 1015.2
20260504234239 23 167 1.6 1.6 0.00 0.00 0.00 39 1015.2
20260504233735 23 183 1.6 1.6 0.00 0.00 0.00 39 1015.2
20260504233231 23 170 0.0 0.0 0.00 0.00 0.00 39 1015.0
20260504232728 23 167 0.0 1.6 0.00 0.00 0.00 39 1014.9
20260504232225 23 165 0.0 1.6 0.00 0.00 0.00 39 1015.0
20260504231722 23 167 1.6 1.6 0.00 0.00 0.00 38 1015.0
20260504231218 23 167 0.0 1.6 0.00 0.00 0.00 37 1015.0
20260504230714 23 169 0.0 1.6 0.00 0.00 0.00 37 1015.0
20260504230214 24 169 0.0 1.6 0.00 0.00 0.00 37 1014.9
20260504225712 24 171 1.6 1.6 0.00 0.00 0.00 34 1014.7
20260504225207 24 175 1.6 1.6 0.00 0.00 0.00 35 1015.0
20260504224705 25 201 0.0 0.0 0.00 0.00 0.00 36 1015.0
20260504224202 25 193 1.6 1.6 0.00 0.00 0.00 33 1014.7
20260504223658 25 182 0.0 1.6 0.00 0.00 0.00 33 1014.8
20260504223154 25 219 0.0 0.0 0.00 0.00 0.00 34 1015.2
20260504222651 25 193 0.0 0.0 0.00 0.00 0.00 33 1014.8
20260504222148 25 167 0.0 0.0 0.00 0.00 0.00 33 1014.9
20260504221645 25 193 0.0 0.0 0.00 0.00 0.00 33 1015.0
20260504221142 25 201 0.0 1.6 0.00 0.00 0.00 32 1014.9
20260504220638 25 165 0.0 0.0 0.00 0.00 0.00 33 1014.9
20260504220136 25 152 0.0 1.6 0.00 0.00 0.00 33 1014.9
20260504215632 25 171 1.6 1.6 0.00 0.00 0.00 34 1014.9
20260504215130 25 180 0.0 1.6 0.00 0.00 0.00 32 1014.7
20260504214626 25 203 0.0 0.0 0.00 0.00 0.00 34 1015.0
20260504214122 25 203 0.0 0.0 0.00 0.00 0.00 32 1014.9
20260504213619 25 255 0.0 0.0 0.00 0.00 0.00 33 1014.9
20260504213116 25 170 1.6 1.6 0.00 0.00 0.00 36 1015.0
20260504212612 25 343 0.0 0.0 0.00 0.00 0.00 33 1014.9
20260504212109 25 227 0.0 0.0 0.00 0.00 0.00 33 1015.2
20260504211606 25 174 0.0 0.0 0.00 0.00 0.00 34 1015.0
20260504211103 25 189 0.0 0.0 0.00 0.00 0.00 34 1015.0
20260504210600 25 200 0.0 1.6 0.00 0.00 0.00 33 1015.2
20260504210056 25 204 1.6 1.6 0.00 0.00 0.00 33 1015.0
20260504205554 25 216 1.6 3.2 0.00 0.00 0.00 35 1014.8
20260504205052 25 146 1.6 1.6 0.00 0.00 0.00 32 1015.2
20260504204550 25 176 1.6 1.6 0.00 0.00 0.00 32 1015.5
20260504204049 25 207 1.6 3.2 0.00 0.00 0.00 33 1015.4
20260504203546 25 191 3.2 3.2 0.00 0.00 0.00 35 1015.4
20260504203044 25 184 0.0 1.6 0.00 0.00 0.00 33 1015.3
20260504202539 25 213 0.0 1.6 0.00 0.00 0.00 34 1015.3
20260504202036 25 202 1.6 1.6 0.00 0.00 0.00 32 1015.4
20260504201533 25 181 1.6 1.6 0.00 0.00 0.00 36 1015.6
20260504201031 25 250 0.0 1.6 0.00 0.00 0.00 33 1015.6
20260504200527 25 199 1.6 1.6 0.00 0.00 0.00 35 1015.6
20260504200024 25 175 1.6 1.6 0.00 0.00 0.00 35 1015.9
20260504195520 25 190 0.0 0.0 0.00 0.00 0.00 37 1015.6
20260504195017 25 215 0.0 0.0 0.00 0.00 0.00 34 1015.9
20260504194513 25 193 0.0 0.0 0.00 0.00 0.00 33 1015.9
20260504194008 25 218 1.6 1.6 0.00 0.00 0.00 34 1015.9
20260504193506 25 212 1.6 1.6 0.00 0.00 0.00 34 1015.9
20260504193005 25 137 1.6 1.6 0.00 0.00 0.00 37 1016.1
20260504192502 25 259 0.0 0.0 0.00 0.00 0.00 33 1015.9
20260504192000 25 175 0.0 0.0 0.00 0.00 0.00 35 1015.9
20260504191458 25 215 1.6 1.6 0.00 0.00 0.00 33 1015.9
20260504190953 25 220 0.0 1.6 0.00 0.00 0.00 34 1016.2
20260504190449 25 197 1.6 1.6 0.00 0.00 0.00 34 1016.1
20260504185946 25 210 0.0 1.6 0.00 0.00 0.00 32 1016.3
20260504185443 25 212 0.0 1.6 0.00 0.00 0.00 33 1016.5
20260504184939 24 209 0.0 1.6 0.00 0.00 0.00 34 1016.3
20260504184435 23 328 3.2 3.2 0.00 0.00 0.00 34 1016.8
20260504183931 24 280 1.6 1.6 0.00 0.00 0.00 33 1016.6
20260504183428 25 327 3.2 3.2 0.00 0.00 0.00 33 1016.6
20260504182926 24 212 1.6 1.6 0.00 0.00 0.00 33 1016.4
20260504182423 24 318 3.2 4.8 0.00 0.00 0.00 33 1016.7
20260504181920 24 250 0.0 0.0 0.00 0.00 0.00 36 1016.6
20260504181417 24 196 0.0 1.6 0.00 0.00 0.00 35 1016.8
20260504180916 24 210 0.0 0.0 0.00 0.00 0.00 34 1016.6
20260504180414 23 223 1.6 1.6 0.00 0.00 0.00 36 1016.9
20260504175912 23 182 0.0 0.0 0.00 0.00 0.00 38 1016.9
20260504175409 23 323 0.0 0.0 0.00 0.00 0.00 38 1016.9
20260504174907 23 196 0.0 0.0 0.00 0.00 0.00 42 1016.9
20260504174404 22 303 1.6 1.6 0.00 0.00 0.00 39 1017.2
20260504173901 22 330 3.2 3.2 0.00 0.00 0.00 39 1016.9
20260504173357 22 340 1.6 3.2 0.00 0.00 0.00 40 1017.2
20260504172855 22 250 0.0 0.0 0.00 0.00 0.00 41 1017.3
20260504172351 22 311 3.2 3.2 0.00 0.00 0.00 39 1017.4
20260504171847 22 336 4.8 4.8 0.00 0.00 0.00 40 1017.6
20260504171344 22 186 0.0 0.0 0.00 0.00 0.00 39 1017.7
20260504170842 22 200 1.6 1.6 0.00 0.00 0.00 40 1017.7
20260504170338 22 320 3.2 4.8 0.00 0.00 0.00 40 1017.7
20260504160256 20 201 0.0 0.0 0.00 0.00 0.00 48 1018.6